Regional Weather Roundup
Issued by NWS

Home | Current Version | Previous Version | Text Only | Print | Product List | Glossary On
Versions: 1 2 3 4 5 6 7 8 9 10 11 12 13 14 15 16 17 18 19 20 21 22 23 24 25 26 27 28 29 30 31 32 33 34 35 36 37 38 39 40 41 42 43 44 45 46 47 48 49 50
000
ASUS43 KLMK 162110
RWRKY
KENTUCKY REGIONAL WEATHER ROUNDUP
NATIONAL WEATHER SERVICE LOUISVILLE KY
500 PM EDT TUE SEP 16 2014

NOTE "FAIR" INDICATES FEW OR NO CLOUDS BELOW 12,000 FEET
WITH NO SIGNIFICANT WEATHER AND/OR OBSTRUCTIONS TO VISIBILITY.

KYZ001>023-026-027-061>063-070>075-162200-
WESTERN AND SOUTH CENTRAL KENTUCKY

CITY           SKY/WX    TMP DP  RH WIND       PRES   REMARKS
PADUCAH        MOSUNNY   73  55  53 N6        30.10F
HENDERSON      CLOUDY    64  52  63 N7        30.12F
OWENSBORO      PTSUNNY   68  54  60 NW9       30.10F
HOPKINSVILLE   SUNNY     68  56  64 NW7       30.10F
BOWLING GREEN  CLOUDY    71  56  58 NE6       30.08F
GLASGOW        SUNNY     72  55  54 N5        30.08S
$$

KYZ024-025-028>034-038-045-046-053-162200-
NORTH CENTRAL KENTUCKY

CITY           SKY/WX    TMP DP  RH WIND       PRES   REMARKS
LOUISVILLE/SDF PTSUNNY   68  55  63 N13       30.10S
LOUISVILLE/LOU PTSUNNY   67  55  65 N13       30.11S
FORT KNOX      MOSUNNY   68  56  63 NW8       30.08F
$$

KYZ035>037-039>044-047>052-055>060-089>105-162200-
NORTHEAST KENTUCKY

CITY           SKY/WX    TMP DP  RH WIND       PRES   REMARKS
LEXINGTON      PTSUNNY   67  55  65 NE9       30.09F
COVINGTON      CLOUDY    61  50  67 N7        30.13S
FRANKFORT      PTSUNNY   66  55  67 NE8       30.09F
$$

KYZ054-064>069-076>088-106>120-162200-
SOUTHEAST KENTUCKY

CITY           SKY/WX    TMP DP  RH WIND       PRES   REMARKS
JACKSON        CLOUDY    62  59  90 CALM      30.09F
LONDON         PTSUNNY   72  57  59 NW7       30.07F
SOMERSET       NOT AVBL
MIDDLESBORO    CLOUDY    71  62  73 NW3       30.07S
MONTICELLO     PTCLDY    76  60  57 N8        30.08F
$$




USA.gov is the U.S. government's official web portal to all federal, state and local government web resources and services.